sat.trackr.live / text

‹ back to catalog

VIGORIDE-5

NORAD 55056 · 2023-001AZ

PAYLOAD ACTIVE UNKNOWN

§ Identity

Operator
Country
US
Launch date
2023-01-03
Launch site
AFETR
Launch vehicle
Mass (kg)
RCS (m²)

External: N2YO · Heavens-Above · Gunter

§ Orbital elements

Epoch: 2026-09-21T17:32:49.139520Z

Period
91.62 min
Inclination
97.3124°
Eccentricity
0.0006685
Mean motion
15.71747079 rev/d
Perigee alt
349.4 km
Apogee alt
358.4 km
Semi-major
6,732.0 km
B*
6.2118e-4
RAAN
340.1078°
Arg perigee
170.6304°
Mean anomaly
189.5085°
Rev number
20,777

§ Raw data

VIGORIDE-51 55056U 23001AZ  26264.73112430  .00080750  00000+0  62118-3 0  99982 55056  97.3124 340.1078 0006685 170.6304 189.5085 15.71747079207775

JSON: /api/v1/satellites/55056 · /tle

For live sub-satellite position, see the globe view (requires WebGL).

§ Visibility from observer

Set your observer location to see the next 7 days of passes ≥ 10°. The values pass through the URL so the page stays shareable.

No JS? Fill the form by hand. The geolocation button needs JavaScript.

§ Radio — SatNOGS DB

ModeDescriptionDownlinkUplink
FM UHF Beacon 400.500 MHz
FM X-band Downlink 8.213 GHz
FM X-band MAPLE Downlink 9.884 GHz
FM X-band SSPD Downlink 9.950 GHz

4 transmitters · refreshed weekly from db.satnogs.org